GPS IIA-3

operational
NORAD ID: 21890 Int'l Des: 1992-009 Owner: AFSSD2 Country: US Constellation: GPS
MEOCIRCULARGNSS

About GPS IIA-3

Description loading...

Live Position

Loading 3D Globe...

Upcoming Passes

Altitude History

Altitude vs Time

uPlot chart will show altitude changes over time

Two-Line Element Set

1 21890U 92009A 26056.42702443 -.00000007 00000-0 00000+0 0 9992
2 21890 54.2203 170.2679 0052952 60.0057 301.0845 1.91828359243951
Epoch: Feb 25, 2026 • Age: 149 hours

Current Status

Altitude 20994.7 km
Velocity 3.82 km/s
Sub-Earth Point -25.64°S, 119.82°E
Launch Date Feb 23, 1992
Age 34 years
Type navigation

Technical Details

Classification Payload
Mass 860.00 kg
Dry Mass 860.00 kg
Total Mass 1881.00 kg
Length 2.40 m
Diameter 1.80 m
Span 5.30 m
Shape Box + 2 Pan
Manufacturer RWISB
Bus Type GPS IIA
Phase Status In Orbit
Owner/State AFSSD2/US

Large Constellations

Loading constellations...